{"data":{"norad_id":65806,"intl_designator":"2025-218R","name":"STARLINK-35047","alt_names":[],"object_type":"PAYLOAD","status":"ACTIVE","operator":null,"country":"US","launch_date":"2025-09-26","launch_site_code":"AFWTR","launch_vehicle":null,"mission":null,"orbit_class":"UNKNOWN","rcs_meters":null,"size_class":null,"mass_kg":null,"dimensions":null,"purposes":["comms"],"wikipedia_slug":null,"has_3d_model":false,"image_url":null,"decayed_at":null,"tle_current":{"epoch":"2026-09-20T13:06:44.893152Z","epoch_age_seconds":102223,"freshness":"FRESH","line1":"1 65806U 25218R   26263.54635293  .00012927  00000+0  40189-3 0  9994","line2":"2 65806  97.2859 120.9639 0002122  87.1506 272.9980 15.33456764 54348","mean_motion":15.33456764,"eccentricity":0.0002122,"inclination_deg":97.2859,"raan_deg":120.9639,"arg_perigee_deg":87.1506,"mean_anomaly_deg":272.998,"bstar":0.00040189,"rev_number":5434,"period_min":93.905484250093,"perigee_km":464.05595180879,"apogee_km":466.96039482035,"semimajor_km":6843.6451733146,"source":"CELESTRAK","updated_at":"2026-09-21T09:00:35.716507Z"}}}